Hourly Data Report for October 18, 2014

All times are specified in Local Standard Time (LST). Add 1 hour to adjust for Daylight Saving Time where and when it is observed.

PETAWAWA AWOS 2
ONTARIO

45°57'00.000" N
77°19'00.000" W
130.10 m
6106396
71625
YWA

Download Data

Hourly Data (October 2014)
Hourly Data Report for October 18, 2014
Temp Definition
°C
Dew Point Temp Definition
°C
Rel Hum Definition
%
Wind Dir Definition
10's deg

Wind Spd Definition
km/h
Visibility Definition
km
Stn Press Definition
kPa
Hmdx Definition


Wind Chill Definition


Weather Definition


TIME
00:00 12.5 9.8 84   0 14.5 98.05     LegendNANA
01:00 12.3 9.6 84 30 4 14.5 98.08     LegendNANA
02:00 11.7 9.6 87 20 4 9.7 98.06     LegendNANA
03:00 12.2 9.9 86 29 4 8.0 98.06     Rain
04:00 10.3 7.5 83 32 17 8.0 98.10     Rain
05:00 10.0 7.3 83 29 11 14.5 98.18     Rain
06:00 9.5 7.0 84 32 11 11.3 98.23     Rain
07:00 9.0 6.2 83 31 11 14.5 98.33     Rain
08:00 8.8 5.4 79 33 20 14.5 98.43     Rain
09:00 8.3 3.7 73 33 24 14.5 98.57     LegendNANA
10:00 8.5 3.4 70 32 24 14.5 98.66     LegendNANA
11:00 8.6 3.2 69 32 30 14.5 98.74     LegendNANA
12:00 9.0 1.5 59 35 33 14.5 98.81     Drizzle
13:00 8.1 1.6 64 35 35 14.5 98.90     Rain
14:00 7.2 2.0 70 33 37 14.5 99.01     Rain
15:00 6.7 2.0 72 33 22 14.5 99.10     Rain
16:00 6.4 1.9 73 32 19 14.5 99.20     LegendNANA
17:00 5.9 0.9 70 33 20 14.5 99.31     LegendNANA
18:00 5.4 -0.4 66 33 26 14.5 99.39     LegendNANA
19:00 5.1 -1.4 63 32 30 14.5 99.50     Drizzle
20:00 4.6 -1.8 63 32 20 14.5 99.59     LegendNANA
21:00 3.4 -1.4 71 33 24 14.5 99.65     Rain
22:00 3.1 -3.3 63 33 17 14.5 99.70     LegendNANA
23:00                    

Notes on Data Quality.

Legend

  • E = Estimated
  • M = Missing
  • NA = Not Available
  • ‡ = Partner data that is not subject to review by the National Climate Archives
Date modified: